User: anonymous   Login
Location: Unspecified
(0.0000°N, 0.0000°E)
Time: 19:50:17
(UTC+00:00)
Language:

NTS 1 - Orbit

View from above orbital plane
View from above orbital plane
View from above satellite
View from above satellite

Ground track
Ground track

The orbit data is extracted from the following two-line orbital elements,

1 07369U 74054A   17266.61798346  .00000049  00000-0  00000+0 0  9993
2 07369 124.9427 264.4599 0076496 247.9472 315.5455  3.07214318484724
Epoch (UTC): 23 September 2017 14:49:53
Eccentricity: 0.0076496
inclination: 124.9427°
perigee height: 13457 km
apogee height: 13763 km
right ascension of ascending node: 264.4599°
argument of perigee: 247.9472°
revolutions per day: 3.07214318
mean anomaly at epoch: 315.5455°
orbit number at epoch: 48472

The dashed part of the orbit path shows where the satellite is in the earth's shadow,  

DLR